Marion, IN

7:57 AM EDT on March 29, 2017 (GMT -0400)
Marion Municipal

Weather History for KMZZ - February, 2013

Change the Weather History Date:

Wednesday, February 20, 2013

  Actual Average (KMIE) Record (KMIE)
Temperature  
Mean Temperature 14 °F -  
Max Temperature 18 °F 39 °F 71 °F (2016)
Min Temperature 9 °F 23 °F -6 °F (2015)
Degree Days  
Heating Degree Days 52    
Moisture  
Dew Point 7 °F    
Average Humidity 74    
Maximum Humidity 79    
Minimum Humidity 70    
Precipitation  
Precipitation 0.00 in - - ()
Sea Level Pressure  
Sea Level Pressure 30.17 in    
Wind  
Wind Speed 17 mph (WNW)    
Max Wind Speed 21 mph    
Max Gust Speed 26 mph    
Visibility 4 miles    
Events Snow    
Averages and records for this station are not official NWS values.
T = Trace of Precipitation, MM = Missing Value Source: NWS Daily Summary

Daily Weather History Graph

Daily Weather History Graph

Search for Another Location

Airport or City:

Trip Planner

Search our weather history database for the weather conditions in past years. The results will help you decide how hot, cold, wet, or windy it might be!

Date:

Astronomy

Feb. 20, 2013 Rise Set
Actual Time 7:29 AM EST 6:24 PM EST
Civil Twilight 7:01 AM EST 6:51 PM EST
Nautical Twilight 6:29 AM EST 7:23 PM EST
Astronomical Twilight 5:58 AM EST 7:55 PM EST
Moon 1:44 PM EST (2/20) 3:49 AM EST (2/20)
Length of Visible Light 11h 50m
Length of Day
10h 54m
Waxing Gibbous, 76% of the Moon is Illuminated
Feb 20
Waxing Gibbous
Feb 25
Full
Mar 4
Last Quarter
Mar 11
New
Mar 19
First Quarter

Hourly Weather History & Observations

Time (EST) Temp. Windchill Dew Point Humidity Pressure Visibility Wind Dir Wind Speed Gust Speed Precip Events Conditions
12:15 AM 18.1 °F 2.9 °F 12.0 °F 77% 30.10 in 1.5 mi WNW 17.3 mph 24.2 mph N/A Snow Light Snow
12:35 AM 17.2 °F 0.4 °F 11.8 °F 79% 30.11 in 2.0 mi WNW 20.7 mph 24.2 mph N/A Snow Light Snow
12:55 AM 16.9 °F 1.7 °F 10.4 °F 76% 30.11 in 2.5 mi WNW 16.1 mph 23.0 mph N/A Snow Light Snow
1:15 AM 16.5 °F 0.8 °F 10.2 °F 76% 30.11 in 2.5 mi WNW 17.3 mph 26.5 mph N/A Snow Light Snow
1:35 AM 16.0 °F -0.4 °F 8.8 °F 73% 30.13 in 4.0 mi WNW 18.4 mph 21.9 mph N/A Snow Light Snow
1:55 AM 15.8 °F -0.2 °F 7.5 °F 70% 30.13 in 3.0 mi WNW 17.3 mph 23.0 mph N/A Snow Light Snow
2:15 AM 15.4 °F -1.6 °F 7.3 °F 70% 30.14 in 5.0 mi WNW 19.6 mph 26.5 mph N/A Snow Light Snow
2:35 AM 15.1 °F -2.5 °F 7.3 °F 71% 30.15 in 4.0 mi West 20.7 mph 25.3 mph N/A Snow Light Snow
2:55 AM 14.9 °F 0.3 °F 7.5 °F 73% 30.15 in 3.0 mi West 13.8 mph - N/A Snow Light Snow
3:15 AM 14.7 °F -1.1 °F 7.9 °F 74% 30.15 in 2.5 mi WNW 16.1 mph 19.6 mph N/A Snow Light Snow
3:35 AM 14.9 °F -0.8 °F 7.3 °F 72% 30.16 in 5.0 mi WNW 16.1 mph 20.7 mph N/A Snow Light Snow
4:15 AM 13.8 °F -2.7 °F 6.6 °F 73% 30.17 in 3.0 mi West 17.3 mph - N/A Snow Light Snow
4:35 AM 13.1 °F -1.4 °F 6.3 °F 74% 30.18 in 7.0 mi West 12.7 mph - N/A Snow Light Snow
4:55 AM 12.6 °F -2.7 °F 5.5 °F 74% 30.18 in 3.0 mi WNW 13.8 mph - N/A Snow Light Snow
5:15 AM 12.6 °F -1.4 °F 5.2 °F 72% 30.19 in 10.0 mi WNW 11.5 mph - N/A   Overcast
5:35 AM 12.7 °F -3.0 °F 5.5 °F 73% 30.19 in 10.0 mi WNW 15.0 mph - N/A   Overcast
5:55 AM 12.2 °F -3.7 °F 5.0 °F 73% 30.19 in 10.0 mi WNW 15.0 mph - N/A   Overcast
6:15 AM 11.5 °F -3.4 °F 4.6 °F 74% 30.20 in 3.0 mi WNW 12.7 mph - N/A Snow Light Snow
6:35 AM 11.1 °F -4.5 °F 4.5 °F 75% 30.21 in 3.0 mi WNW 13.8 mph 17.3 mph N/A Snow Light Snow
7:15 AM 10.2 °F -4.3 °F 3.7 °F 75% 30.22 in 3.0 mi WNW 11.5 mph - N/A Snow Light Snow
7:55 AM 9.7 °F -5.0 °F 3.6 °F 76% 30.24 in 2.0 mi West 11.5 mph - N/A Snow Light Snow
8:35 AM 10.6 °F -5.2 °F 3.7 °F 74% 30.25 in 2.0 mi West 13.8 mph - N/A Snow Light Snow